Time,TemperatureF,DewpointF,PressureIn,WindDirection,WindDirectionDegrees,WindSpeedMPH,WindSpeedGustMPH,Humidity,HourlyPrecipIn,Conditions,Clouds,dailyrainin,SoftwareType,DateUTC
2013-01-05 00:02:00,34.8,26.0,30.30,SE,146,0.0,0.0,70,0.00,,---,0.00,VWS V14.00,2013-01-05 06:02:00,
2013-01-05 00:03:00,34.8,26.0,30.29,SE,146,0.0,0.0,70,0.00,,---,0.00,VWS V14.00,2013-01-05 06:03:00,
2013-01-05 00:07:00,34.9,26.1,30.30,SE,146,0.0,0.0,70,0.00,,---,0.00,VWS V14.00,2013-01-05 06:07:00,
2013-01-05 00:09:00,34.8,26.0,30.29,SE,146,0.0,0.0,70,0.00,,---,0.00,VWS V14.00,2013-01-05 06:09:00,
2013-01-05 00:10:00,34.8,26.0,30.29,SE,146,0.0,0.0,70,0.00,,---,0.00,VWS V14.00,2013-01-05 06:10:00,
2013-01-05 00:11:00,34.9,26.5,30.29,SE,146,0.0,0.0,71,0.00,,---,0.00,VWS V14.00,2013-01-05 06:11:00,
2013-01-05 00:12:00,34.9,26.5,30.29,SE,146,0.0,0.0,71,0.00,,---,0.00,VWS V14.00,2013-01-05 06:12:00,
2013-01-05 00:14:00,34.8,26.0,30.29,SE,146,0.0,0.0,70,0.00,,---,0.00,VWS V14.00,2013-01-05 06:14:00,
2013-01-05 00:15:00,35.1,26.3,30.29,SE,146,0.0,0.0,70,0.00,,---,0.00,VWS V14.00,2013-01-05 06:15:00,
2013-01-05 00:16:00,35.2,26.4,30.29,SE,146,0.0,0.0,70,0.00,,---,0.00,VWS V14.00,2013-01-05 06:16:00,
2013-01-05 00:17:00,35.2,26.4,30.29,SE,146,0.0,0.0,70,0.00,,---,0.00,VWS V14.00,2013-01-05 06:17:00,
2013-01-05 00:21:00,35.3,26.5,30.29,SE,146,0.0,0.0,70,0.00,,---,0.00,VWS V14.00,2013-01-05 06:21:00,
2013-01-05 00:23:00,35.0,26.2,30.29,SE,146,0.0,0.0,70,0.00,,---,0.00,VWS V14.00,2013-01-05 06:23:00,
2013-01-05 00:27:00,35.5,26.7,30.29,SE,146,0.0,0.0,70,0.00,,---,0.00,VWS V14.00,2013-01-05 06:27:00,
2013-01-05 00:28:00,35.3,26.5,30.29,SE,146,0.0,0.0,70,0.00,,---,0.00,VWS V14.00,2013-01-05 06:28:00,
2013-01-05 00:33:00,35.4,26.6,30.29,SE,146,0.0,0.0,70,0.00,,---,0.00,VWS V14.00,2013-01-05 06:33:00,
2013-01-05 00:38:00,35.5,27.0,30.29,SE,146,0.0,0.0,71,0.00,,---,0.00,VWS V14.00,2013-01-05 06:38:00,
2013-01-05 00:39:00,35.5,26.7,30.29,SE,146,0.0,0.0,70,0.00,,---,0.00,VWS V14.00,2013-01-05 06:39:00,
2013-01-05 00:40:00,35.5,26.7,30.29,SE,146,0.0,0.0,70,0.00,,---,0.00,VWS V14.00,2013-01-05 06:40:00,
2013-01-05 00:41:00,35.5,26.7,30.29,SE,146,0.0,0.0,70,0.00,,---,0.00,VWS V14.00,2013-01-05 06:41:00,
2013-01-05 00:43:00,35.7,26.5,30.29,SE,146,0.0,0.0,69,0.00,,---,0.00,VWS V14.00,2013-01-05 06:43:00,
2013-01-05 00:44:00,35.4,26.6,30.29,SE,146,0.0,0.0,70,0.00,,---,0.00,VWS V14.00,2013-01-05 06:44:00,
2013-01-05 00:46:00,36.3,26.8,30.29,South,172,0.0,0.0,68,0.00,,---,0.00,VWS V14.00,2013-01-05 06:46:00,
2013-01-05 00:49:00,35.4,27.0,30.29,SE,146,0.0,0.0,71,0.00,,---,0.00,VWS V14.00,2013-01-05 06:49:00,
2013-01-05 00:54:00,38.2,27.1,30.29,South,184,0.0,3.0,64,0.00,,---,0.00,VWS V14.00,2013-01-05 06:54:00,
2013-01-05 00:55:00,36.1,26.9,30.29,South,172,0.0,1.0,69,0.00,,---,0.00,VWS V14.00,2013-01-05 06:55:00,
2013-01-05 01:00:00,38.9,27.0,30.28,SSW,193,0.0,0.0,62,0.00,,---,0.00,VWS V14.00,2013-01-05 07:00:00,
2013-01-05 01:01:00,37.5,26.8,30.29,South,178,0.0,3.0,65,0.00,,---,0.00,VWS V14.00,2013-01-05 07:01:00,
2013-01-05 01:03:00,39.1,26.8,30.28,South,189,0.0,0.0,61,0.00,,---,0.00,VWS V14.00,2013-01-05 07:03:00,
2013-01-05 01:06:00,38.5,27.0,30.29,South,184,0.0,0.0,63,0.00,,---,0.00,VWS V14.00,2013-01-05 07:06:00,
2013-01-05 01:12:00,39.1,26.8,30.28,South,189,0.0,0.0,61,0.00,,---,0.00,VWS V14.00,2013-01-05 07:12:00,
2013-01-05 01:17:00,39.3,27.0,30.28,SSW,198,0.0,0.0,61,0.00,,---,0.00,VWS V14.00,2013-01-05 07:17:00,
2013-01-05 01:23:00,39.5,27.2,30.28,South,176,0.0,0.0,61,0.00,,---,0.00,VWS V14.00,2013-01-05 07:23:00,
2013-01-05 01:28:00,39.5,27.2,30.28,South,176,0.0,0.0,61,0.00,,---,0.00,VWS V14.00,2013-01-05 07:28:00,
2013-01-05 01:34:00,39.5,27.2,30.28,South,176,0.0,0.0,61,0.00,,---,0.00,VWS V14.00,2013-01-05 07:34:00,
2013-01-05 01:39:00,39.5,27.6,30.28,South,176,1.0,1.0,62,0.00,,---,0.00,VWS V14.00,2013-01-05 07:39:00,
2013-01-05 01:44:00,39.5,27.2,30.28,South,175,0.0,0.0,61,0.00,,---,0.00,VWS V14.00,2013-01-05 07:44:00,
2013-01-05 01:49:00,39.5,27.6,30.28,South,175,0.0,0.0,62,0.00,,---,0.00,VWS V14.00,2013-01-05 07:49:00,
2013-01-05 01:54:00,39.4,27.1,30.28,South,175,0.0,0.0,61,0.00,,---,0.00,VWS V14.00,2013-01-05 07:54:00,
2013-01-05 02:00:00,39.3,27.0,30.28,South,176,0.0,2.0,61,0.00,,---,0.00,VWS V14.00,2013-01-05 08:00:00,
2013-01-05 02:05:00,39.2,27.3,30.28,South,177,0.0,0.0,62,0.00,,---,0.00,VWS V14.00,2013-01-05 08:05:00,
2013-01-05 02:10:00,39.3,27.4,30.28,South,177,0.0,0.0,62,0.00,,---,0.00,VWS V14.00,2013-01-05 08:10:00,
2013-01-05 02:16:00,39.3,27.4,30.28,South,176,0.0,1.0,62,0.00,,---,0.00,VWS V14.00,2013-01-05 08:16:00,
2013-01-05 02:21:00,39.3,27.8,30.28,South,176,0.0,0.0,63,0.00,,---,0.00,VWS V14.00,2013-01-05 08:21:00,
2013-01-05 02:27:00,39.0,27.5,30.28,SE,146,0.0,4.0,63,0.00,,---,0.00,VWS V14.00,2013-01-05 08:27:00,
2013-01-05 02:32:00,38.7,27.2,30.28,SE,141,0.0,0.0,63,0.00,,---,0.00,VWS V14.00,2013-01-05 08:32:00,
2013-01-05 02:37:00,38.1,27.0,30.28,SE,141,0.0,0.0,64,0.00,,---,0.00,VWS V14.00,2013-01-05 08:37:00,
2013-01-05 02:43:00,38.0,27.3,30.28,South,169,0.0,0.0,65,0.00,,---,0.00,VWS V14.00,2013-01-05 08:43:00,
2013-01-05 02:48:00,38.2,27.1,30.28,South,169,0.0,1.0,64,0.00,,---,0.00,VWS V14.00,2013-01-05 08:48:00,
2013-01-05 02:53:00,38.8,27.7,30.28,SW,229,0.0,0.0,64,0.00,,---,0.00,VWS V14.00,2013-01-05 08:53:00,
2013-01-05 02:58:00,38.9,27.4,30.28,SW,229,0.0,0.0,63,0.00,,---,0.00,VWS V14.00,2013-01-05 08:58:00,
2013-01-05 03:04:00,39.0,27.9,30.28,SW,229,0.0,0.0,64,0.00,,---,0.00,VWS V14.00,2013-01-05 09:04:00,
2013-01-05 03:09:00,39.0,28.2,30.28,SW,229,0.0,0.0,65,0.00,,---,0.00,VWS V14.00,2013-01-05 09:09:00,
2013-01-05 03:15:00,39.1,28.3,30.28,South,174,0.0,7.0,65,0.00,,---,0.00,VWS V14.00,2013-01-05 09:15:00,
2013-01-05 03:21:00,39.4,29.0,30.28,ESE,114,0.0,5.0,66,0.00,,---,0.00,VWS V14.00,2013-01-05 09:21:00,
2013-01-05 03:26:00,39.4,29.4,30.27,SSE,153,3.0,5.0,67,0.00,,---,0.00,VWS V14.00,2013-01-05 09:26:00,
2013-01-05 03:31:00,39.3,29.6,30.27,South,188,4.0,9.0,68,0.00,,---,0.00,VWS V14.00,2013-01-05 09:31:00,
2013-01-05 03:37:00,39.3,30.0,30.27,South,174,0.0,4.0,69,0.00,,---,0.00,VWS V14.00,2013-01-05 09:37:00,
2013-01-05 03:42:00,39.3,30.7,30.27,South,181,6.0,10.0,71,0.00,,---,0.00,VWS V14.00,2013-01-05 09:42:00,
2013-01-05 03:47:00,39.3,31.0,30.27,SSE,155,0.0,9.0,72,0.00,,---,0.00,VWS V14.00,2013-01-05 09:47:00,
2013-01-05 03:53:00,39.4,31.8,30.27,South,169,0.0,11.0,74,0.00,,---,0.00,VWS V14.00,2013-01-05 09:53:00,
2013-01-05 03:59:00,39.6,32.0,30.27,South,182,5.0,8.0,74,0.00,,---,0.00,VWS V14.00,2013-01-05 09:59:00,
2013-01-05 04:05:00,39.7,32.4,30.27,SSW,206,0.0,5.0,75,0.00,,---,0.00,VWS V14.00,2013-01-05 10:05:00,
2013-01-05 04:10:00,39.8,32.5,30.26,SSE,162,1.0,9.0,75,0.00,,---,0.00,VWS V14.00,2013-01-05 10:10:00,
2013-01-05 04:16:00,39.8,32.5,30.26,South,179,1.0,6.0,75,0.00,,---,0.00,VWS V14.00,2013-01-05 10:16:00,
2013-01-05 04:22:00,39.9,32.6,30.26,South,183,4.0,6.0,75,0.00,,---,0.00,VWS V14.00,2013-01-05 10:22:00,
2013-01-05 04:27:00,40.0,32.7,30.25,South,177,2.0,11.0,75,0.00,,---,0.00,VWS V14.00,2013-01-05 10:27:00,
2013-01-05 04:32:00,40.1,32.8,30.25,South,187,1.0,7.0,75,0.00,,---,0.00,VWS V14.00,2013-01-05 10:32:00,
2013-01-05 04:37:00,40.2,33.2,30.25,SSW,202,6.0,11.0,76,0.00,,---,0.00,VWS V14.00,2013-01-05 10:37:00,
2013-01-05 04:42:00,40.2,33.2,30.25,South,190,4.0,7.0,76,0.00,,---,0.00,VWS V14.00,2013-01-05 10:42:00,
2013-01-05 04:47:00,40.2,33.6,30.25,SSW,205,0.0,7.0,77,0.00,,---,0.00,VWS V14.00,2013-01-05 10:47:00,
2013-01-05 04:52:00,40.2,33.6,30.25,South,178,2.0,2.0,77,0.00,,---,0.00,VWS V14.00,2013-01-05 10:52:00,
2013-01-05 04:58:00,40.2,33.6,30.25,South,179,0.0,6.0,77,0.00,,---,0.00,VWS V14.00,2013-01-05 10:58:00,
2013-01-05 05:04:00,40.1,33.5,30.25,South,187,0.0,0.0,77,0.00,,---,0.00,VWS V14.00,2013-01-05 11:04:00,
2013-01-05 05:10:00,40.1,33.8,30.25,South,176,0.0,5.0,78,0.00,,---,0.00,VWS V14.00,2013-01-05 11:10:00,
2013-01-05 05:15:00,40.2,33.9,30.25,South,183,0.0,4.0,78,0.00,,---,0.00,VWS V14.00,2013-01-05 11:15:00,
2013-01-05 05:20:00,40.2,33.9,30.25,SSE,167,0.0,6.0,78,0.00,,---,0.00,VWS V14.00,2013-01-05 11:20:00,
2013-01-05 05:26:00,40.1,33.8,30.24,South,178,0.0,1.0,78,0.00,,---,0.00,VWS V14.00,2013-01-05 11:26:00,
2013-01-05 05:32:00,40.1,33.8,30.24,SE,136,0.0,0.0,78,0.00,,---,0.00,VWS V14.00,2013-01-05 11:32:00,
2013-01-05 05:37:00,40.1,33.8,30.24,South,186,0.0,0.0,78,0.00,,---,0.00,VWS V14.00,2013-01-05 11:37:00,
2013-01-05 05:43:00,40.0,33.7,30.24,SSE,155,0.0,0.0,78,0.00,,---,0.00,VWS V14.00,2013-01-05 11:43:00,
2013-01-05 05:48:00,39.9,33.6,30.24,SE,146,0.0,0.0,78,0.00,,---,0.00,VWS V14.00,2013-01-05 11:48:00,
2013-01-05 05:54:00,39.7,33.7,30.24,SE,141,0.0,0.0,79,0.00,,---,0.00,VWS V14.00,2013-01-05 11:54:00,
2013-01-05 05:59:00,39.5,33.5,30.23,SE,141,0.0,0.0,79,0.00,,---,0.00,VWS V14.00,2013-01-05 11:59:00,
2013-01-05 06:04:00,39.4,33.4,30.23,SE,141,0.0,0.0,79,0.00,,---,0.00,VWS V14.00,2013-01-05 12:04:00,
2013-01-05 06:10:00,39.3,33.3,30.24,ESE,120,0.0,5.0,79,0.00,,---,0.00,VWS V14.00,2013-01-05 12:10:00,
2013-01-05 06:16:00,39.3,33.3,30.24,SE,138,0.0,0.0,79,0.00,,---,0.00,VWS V14.00,2013-01-05 12:16:00,
2013-01-05 06:22:00,39.4,33.4,30.24,SSE,159,0.0,2.0,79,0.00,,---,0.00,VWS V14.00,2013-01-05 12:22:00,
2013-01-05 06:27:00,39.4,33.1,30.23,SE,142,0.0,2.0,78,0.00,,---,0.00,VWS V14.00,2013-01-05 12:27:00,
2013-01-05 06:33:00,39.3,33.0,30.23,South,174,0.0,0.0,78,0.00,,---,0.00,VWS V14.00,2013-01-05 12:33:00,
2013-01-05 06:39:00,39.3,33.0,30.23,SE,127,0.0,4.0,78,0.00,,---,0.00,VWS V14.00,2013-01-05 12:39:00,
2013-01-05 06:44:00,39.2,32.9,30.24,SE,141,0.0,0.0,78,0.00,,---,0.00,VWS V14.00,2013-01-05 12:44:00,
2013-01-05 06:50:00,39.1,32.8,30.24,SE,124,0.0,5.0,78,0.00,,---,0.00,VWS V14.00,2013-01-05 12:50:00,
2013-01-05 06:55:00,39.1,32.8,30.23,SSW,206,0.0,0.0,78,0.00,,---,0.00,VWS V14.00,2013-01-05 12:55:00,
2013-01-05 07:01:00,39.0,32.4,30.23,SSE,153,0.0,0.0,77,0.00,,---,0.00,VWS V14.00,2013-01-05 13:01:00,
2013-01-05 07:07:00,38.9,32.3,30.23,ESE,108,0.0,3.0,77,0.00,,---,0.00,VWS V14.00,2013-01-05 13:07:00,
2013-01-05 07:12:00,38.9,32.0,30.23,SE,127,0.0,3.0,76,0.00,,---,0.00,VWS V14.00,2013-01-05 13:12:00,
2013-01-05 07:18:00,38.9,31.7,30.23,SSE,150,0.0,2.0,75,0.00,,---,0.00,VWS V14.00,2013-01-05 13:18:00,
2013-01-05 07:24:00,38.9,31.7,30.23,SSE,155,0.0,5.0,75,0.00,,---,0.00,VWS V14.00,2013-01-05 13:24:00,
2013-01-05 07:29:00,39.0,31.4,30.24,SSE,162,0.0,0.0,74,0.00,,---,0.00,VWS V14.00,2013-01-05 13:29:00,
2013-01-05 07:34:00,39.1,31.2,30.24,SSW,194,0.0,0.0,73,0.00,,---,0.00,VWS V14.00,2013-01-05 13:34:00,
2013-01-05 07:39:00,39.1,31.2,30.24,SE,140,0.0,0.0,73,0.00,,---,0.00,VWS V14.00,2013-01-05 13:39:00,
2013-01-05 07:44:00,39.2,31.3,30.25,ESE,105,0.0,3.0,73,0.00,,---,0.00,VWS V14.00,2013-01-05 13:44:00,
2013-01-05 07:49:00,39.2,31.0,30.25,South,170,0.0,0.0,72,0.00,,---,0.00,VWS V14.00,2013-01-05 13:49:00,
2013-01-05 07:54:00,39.2,31.0,30.25,SE,138,5.0,5.0,72,0.00,,---,0.00,VWS V14.00,2013-01-05 13:54:00,
2013-01-05 08:00:00,39.2,31.0,30.25,SSE,163,0.0,0.0,72,0.00,,---,0.00,VWS V14.00,2013-01-05 14:00:00,
2013-01-05 08:05:00,39.2,30.6,30.25,South,181,0.0,7.0,71,0.00,,---,0.00,VWS V14.00,2013-01-05 14:05:00,
2013-01-05 08:10:00,39.2,31.0,30.24,SE,140,0.0,5.0,72,0.00,,---,0.00,VWS V14.00,2013-01-05 14:10:00,
2013-01-05 08:15:00,39.3,31.0,30.24,South,179,0.0,0.0,72,0.00,,---,0.00,VWS V14.00,2013-01-05 14:15:00,
2013-01-05 08:21:00,39.3,31.0,30.24,ESE,120,3.0,8.0,72,0.00,,---,0.00,VWS V14.00,2013-01-05 14:21:00,
2013-01-05 08:27:00,39.3,31.0,30.25,South,186,0.0,10.0,72,0.00,,---,0.00,VWS V14.00,2013-01-05 14:27:00,
2013-01-05 08:32:00,39.3,31.0,30.25,South,173,0.0,0.0,72,0.00,,---,0.00,VWS V14.00,2013-01-05 14:32:00,
2013-01-05 08:37:00,39.4,31.1,30.25,South,184,2.0,6.0,72,0.00,,---,0.00,VWS V14.00,2013-01-05 14:37:00,
2013-01-05 08:42:00,39.4,31.1,30.25,SSW,207,5.0,7.0,72,0.00,,---,0.00,VWS V14.00,2013-01-05 14:42:00,
2013-01-05 08:47:00,39.5,31.2,30.25,SSW,200,6.0,8.0,72,0.00,,---,0.00,VWS V14.00,2013-01-05 14:47:00,
2013-01-05 08:52:00,39.6,31.3,30.25,South,187,12.0,12.0,72,0.00,,---,0.00,VWS V14.00,2013-01-05 14:52:00,
2013-01-05 08:58:00,39.6,31.3,30.25,South,185,6.0,9.0,72,0.00,,---,0.00,VWS V14.00,2013-01-05 14:58:00,
2013-01-05 09:03:00,39.7,31.4,30.25,SSW,193,7.0,7.0,72,0.00,,---,0.00,VWS V14.00,2013-01-05 15:03:00,
2013-01-05 09:08:00,39.8,31.5,30.25,South,180,0.0,4.0,72,0.00,,---,0.00,VWS V14.00,2013-01-05 15:08:00,
2013-01-05 09:14:00,39.9,31.6,30.25,SSE,155,0.0,7.0,72,0.00,,---,0.00,VWS V14.00,2013-01-05 15:14:00,
2013-01-05 09:19:00,40.0,31.7,30.25,SSW,198,10.0,10.0,72,0.00,,---,0.00,VWS V14.00,2013-01-05 15:19:00,
2013-01-05 09:24:00,40.1,31.8,30.25,South,170,3.0,7.0,72,0.00,,---,0.00,VWS V14.00,2013-01-05 15:24:00,
2013-01-05 09:29:00,40.2,31.9,30.25,SSE,168,0.0,10.0,72,0.00,,---,0.00,VWS V14.00,2013-01-05 15:29:00,
2013-01-05 09:35:00,40.5,32.2,30.25,South,171,2.0,6.0,72,0.00,,---,0.00,VWS V14.00,2013-01-05 15:35:00,
2013-01-05 09:40:00,40.8,32.5,30.24,ESE,122,0.0,6.0,72,0.00,,---,0.00,VWS V14.00,2013-01-05 15:40:00,
2013-01-05 09:45:00,41.2,32.9,30.24,ESE,106,5.0,5.0,72,0.00,,---,0.00,VWS V14.00,2013-01-05 15:45:00,
2013-01-05 09:51:00,42.0,33.3,30.24,South,179,0.0,2.0,71,0.00,,---,0.00,VWS V14.00,2013-01-05 15:51:00,
2013-01-05 09:57:00,42.7,33.6,30.24,SSW,193,7.0,15.0,70,0.00,,---,0.00,VWS V14.00,2013-01-05 15:57:00,
2013-01-05 10:03:00,42.9,34.2,30.24,SSW,195,3.0,6.0,71,0.00,,---,0.00,VWS V14.00,2013-01-05 16:03:00,
2013-01-05 10:08:00,43.0,34.2,30.24,SW,224,7.0,11.0,71,0.00,,---,0.00,VWS V14.00,2013-01-05 16:08:00,
2013-01-05 10:13:00,42.9,34.2,30.24,SSE,168,7.0,10.0,71,0.00,,---,0.00,VWS V14.00,2013-01-05 16:13:00,
2013-01-05 10:19:00,43.1,34.3,30.24,South,181,4.0,17.0,71,0.00,,---,0.00,VWS V14.00,2013-01-05 16:19:00,
2013-01-05 10:24:00,43.6,34.8,30.24,South,172,3.0,5.0,71,0.00,,---,0.00,VWS V14.00,2013-01-05 16:24:00,
2013-01-05 10:29:00,43.8,34.7,30.23,SSW,193,3.0,9.0,70,0.00,,---,0.00,VWS V14.00,2013-01-05 16:29:00,
2013-01-05 10:34:00,43.5,34.4,30.23,SSW,198,4.0,11.0,70,0.00,,---,0.00,VWS V14.00,2013-01-05 16:34:00,
2013-01-05 10:39:00,44.0,34.9,30.23,SSE,158,4.0,9.0,70,0.00,,---,0.00,VWS V14.00,2013-01-05 16:39:00,
2013-01-05 10:45:00,44.3,35.2,30.23,South,188,3.0,7.0,70,0.00,,---,0.00,VWS V14.00,2013-01-05 16:45:00,
2013-01-05 10:50:00,44.8,34.9,30.23,South,172,0.0,5.0,68,0.00,,---,0.00,VWS V14.00,2013-01-05 16:50:00,
2013-01-05 10:55:00,44.5,35.0,30.22,South,174,6.0,6.0,69,0.00,,---,0.00,VWS V14.00,2013-01-05 16:55:00,
2013-01-05 11:01:00,45.0,34.7,30.22,SW,220,4.0,14.0,67,0.00,,---,0.00,VWS V14.00,2013-01-05 17:01:00,
2013-01-05 11:07:00,44.9,34.6,30.22,South,173,2.0,7.0,67,0.00,,---,0.00,VWS V14.00,2013-01-05 17:07:00,
2013-01-05 11:13:00,44.9,34.6,30.22,SSW,200,4.0,9.0,67,0.00,,---,0.00,VWS V14.00,2013-01-05 17:13:00,
2013-01-05 11:18:00,44.7,34.4,30.22,SW,229,2.0,4.0,67,0.00,,---,0.00,VWS V14.00,2013-01-05 17:18:00,
2013-01-05 11:23:00,44.7,34.4,30.22,SSW,207,4.0,5.0,67,0.00,,---,0.00,VWS V14.00,2013-01-05 17:23:00,
2013-01-05 11:29:00,44.5,34.2,30.22,SW,215,2.0,10.0,67,0.00,,---,0.00,VWS V14.00,2013-01-05 17:29:00,
2013-01-05 11:34:00,44.5,34.2,30.22,SSW,192,3.0,6.0,67,0.00,,---,0.00,VWS V14.00,2013-01-05 17:34:00,
2013-01-05 11:39:00,44.4,34.5,30.22,SW,219,1.0,5.0,68,0.00,,---,0.00,VWS V14.00,2013-01-05 17:39:00,
2013-01-05 11:44:00,44.2,34.7,30.21,SSE,167,0.0,7.0,69,0.00,,---,0.00,VWS V14.00,2013-01-05 17:44:00,
2013-01-05 11:50:00,44.1,34.2,30.21,SSW,193,0.0,7.0,68,0.00,,---,0.00,VWS V14.00,2013-01-05 17:50:00,
2013-01-05 11:55:00,44.2,34.3,30.20,SSW,194,1.0,8.0,68,0.00,,---,0.00,VWS V14.00,2013-01-05 17:55:00,
2013-01-05 12:00:00,44.2,34.3,30.20,South,181,0.0,8.0,68,0.00,,---,0.00,VWS V14.00,2013-01-05 18:00:00,
2013-01-05 12:05:00,44.3,34.4,30.20,WSW,255,7.0,7.0,68,0.00,,---,0.00,VWS V14.00,2013-01-05 18:05:00,
2013-01-05 12:10:00,44.4,34.5,30.19,SSW,197,0.0,0.0,68,0.00,,---,0.00,VWS V14.00,2013-01-05 18:10:00,
2013-01-05 12:15:00,44.5,34.2,30.19,SSW,201,0.0,4.0,67,0.00,,---,0.00,VWS V14.00,2013-01-05 18:15:00,
2013-01-05 12:20:00,44.3,33.7,30.19,West,274,12.0,12.0,66,0.00,,---,0.00,VWS V14.00,2013-01-05 18:20:00,
2013-01-05 12:25:00,44.4,33.4,30.19,South,172,9.0,9.0,65,0.00,,---,0.00,VWS V14.00,2013-01-05 18:25:00,
2013-01-05 12:30:00,44.5,33.1,30.19,WSW,248,12.0,13.0,64,0.00,,---,0.00,VWS V14.00,2013-01-05 18:30:00,
2013-01-05 12:35:00,44.3,32.9,30.19,South,180,1.0,9.0,64,0.00,,---,0.00,VWS V14.00,2013-01-05 18:35:00,
2013-01-05 12:40:00,44.6,33.6,30.19,South,185,0.0,2.0,65,0.00,,---,0.00,VWS V14.00,2013-01-05 18:40:00,
2013-01-05 12:45:00,44.9,33.5,30.19,West,266,7.0,7.0,64,0.00,,---,0.00,VWS V14.00,2013-01-05 18:45:00,
2013-01-05 12:51:00,44.9,33.5,30.19,WSW,250,5.0,11.0,64,0.00,,---,0.00,VWS V14.00,2013-01-05 18:51:00,
2013-01-05 12:56:00,45.0,34.0,30.18,SSE,151,3.0,5.0,65,0.00,,---,0.00,VWS V14.00,2013-01-05 18:56:00,
2013-01-05 13:02:00,45.0,33.2,30.18,SW,227,0.0,6.0,63,0.00,,---,0.00,VWS V14.00,2013-01-05 19:02:00,
2013-01-05 13:07:00,45.1,32.9,30.18,WNW,285,7.0,10.0,62,0.00,,---,0.00,VWS V14.00,2013-01-05 19:07:00,
2013-01-05 13:13:00,44.9,32.7,30.18,WSW,245,5.0,12.0,62,0.00,,---,0.00,VWS V14.00,2013-01-05 19:13:00,
2013-01-05 13:19:00,45.0,32.8,30.18,SSE,166,0.0,2.0,62,0.00,,---,0.00,VWS V14.00,2013-01-05 19:19:00,
2013-01-05 13:25:00,45.1,32.9,30.17,SW,224,7.0,7.0,62,0.00,,---,0.00,VWS V14.00,2013-01-05 19:25:00,
2013-01-05 13:30:00,45.2,33.0,30.17,SSW,204,2.0,7.0,62,0.00,,---,0.00,VWS V14.00,2013-01-05 19:30:00,
2013-01-05 13:35:00,45.6,33.3,30.17,South,171,0.0,5.0,62,0.00,,---,0.00,VWS V14.00,2013-01-05 19:35:00,
2013-01-05 13:41:00,45.5,32.8,30.16,SSW,212,4.0,12.0,61,0.00,,---,0.00,VWS V14.00,2013-01-05 19:41:00,
2013-01-05 13:46:00,45.4,33.2,30.16,SW,227,6.0,6.0,62,0.00,,---,0.00,VWS V14.00,2013-01-05 19:46:00,
2013-01-05 13:52:00,45.6,33.3,30.16,SSE,156,2.0,6.0,62,0.00,,---,0.00,VWS V14.00,2013-01-05 19:52:00,
2013-01-05 13:58:00,45.6,33.3,30.17,WSW,247,0.0,6.0,62,0.00,,---,0.00,VWS V14.00,2013-01-05 19:58:00,
2013-01-05 14:03:00,45.7,33.4,30.17,SW,221,7.0,12.0,62,0.00,,---,0.00,VWS V14.00,2013-01-05 20:03:00,
2013-01-05 14:08:00,45.6,33.3,30.17,SW,220,0.0,5.0,62,0.00,,---,0.00,VWS V14.00,2013-01-05 20:08:00,
2013-01-05 14:13:00,45.7,33.4,30.17,South,180,5.0,5.0,62,0.00,,---,0.00,VWS V14.00,2013-01-05 20:13:00,
2013-01-05 14:18:00,45.5,33.2,30.17,SW,234,4.0,9.0,62,0.00,,---,0.00,VWS V14.00,2013-01-05 20:18:00,
2013-01-05 14:23:00,45.6,33.3,30.17,WSW,243,7.0,10.0,62,0.00,,---,0.00,VWS V14.00,2013-01-05 20:23:00,
2013-01-05 14:29:00,45.9,33.6,30.16,West,264,7.0,10.0,62,0.00,,---,0.00,VWS V14.00,2013-01-05 20:29:00,
2013-01-05 14:34:00,45.9,33.2,30.16,West,273,6.0,6.0,61,0.00,,---,0.00,VWS V14.00,2013-01-05 20:34:00,
2013-01-05 14:40:00,46.1,33.4,30.16,West,271,5.0,9.0,61,0.00,,---,0.00,VWS V14.00,2013-01-05 20:40:00,
2013-01-05 14:45:00,46.1,33.4,30.16,West,269,0.0,5.0,61,0.00,,---,0.00,VWS V14.00,2013-01-05 20:45:00,
2013-01-05 14:50:00,46.5,33.0,30.16,SW,214,2.0,4.0,59,0.00,,---,0.00,VWS V14.00,2013-01-05 20:50:00,
2013-01-05 14:55:00,47.4,33.0,30.15,SW,225,0.0,3.0,57,0.00,,---,0.00,VWS V14.00,2013-01-05 20:55:00,
2013-01-05 15:00:00,47.9,33.0,30.15,SW,217,0.0,0.0,56,0.00,,---,0.00,VWS V14.00,2013-01-05 21:00:00,
2013-01-05 15:05:00,48.3,32.9,30.15,WNW,285,5.0,5.0,55,0.00,,---,0.00,VWS V14.00,2013-01-05 21:05:00,
2013-01-05 15:10:00,48.1,31.8,30.15,SW,224,9.0,12.0,53,0.00,,---,0.00,VWS V14.00,2013-01-05 21:10:00,
2013-01-05 15:15:00,47.7,32.3,30.15,SW,221,0.0,7.0,55,0.00,,---,0.00,VWS V14.00,2013-01-05 21:15:00,
2013-01-05 15:20:00,47.9,32.5,30.15,SW,231,10.0,12.0,55,0.00,,---,0.00,VWS V14.00,2013-01-05 21:20:00,
2013-01-05 15:26:00,47.8,32.9,30.16,West,259,1.0,4.0,56,0.00,,---,0.00,VWS V14.00,2013-01-05 21:26:00,
2013-01-05 15:31:00,47.8,32.4,30.16,SW,215,9.0,11.0,55,0.00,,---,0.00,VWS V14.00,2013-01-05 21:31:00,
2013-01-05 15:37:00,48.0,33.1,30.16,South,188,0.0,6.0,56,0.00,,---,0.00,VWS V14.00,2013-01-05 21:37:00,
2013-01-05 15:42:00,48.2,33.3,30.16,South,189,0.0,0.0,56,0.00,,---,0.00,VWS V14.00,2013-01-05 21:42:00,
2013-01-05 15:47:00,48.0,33.1,30.16,South,182,0.0,5.0,56,0.00,,---,0.00,VWS V14.00,2013-01-05 21:47:00,
2013-01-05 15:52:00,48.1,33.2,30.16,SW,220,0.0,4.0,56,0.00,,---,0.00,VWS V14.00,2013-01-05 21:52:00,
2013-01-05 15:58:00,48.2,32.8,30.16,South,187,0.0,4.0,55,0.00,,---,0.00,VWS V14.00,2013-01-05 21:58:00,
2013-01-05 16:04:00,48.3,33.3,30.16,South,174,0.0,3.0,56,0.00,,---,0.00,VWS V14.00,2013-01-05 22:04:00,
2013-01-05 16:09:00,48.3,32.9,30.16,South,171,0.0,0.0,55,0.00,,---,0.00,VWS V14.00,2013-01-05 22:09:00,
2013-01-05 16:14:00,48.7,33.3,30.16,SSW,197,0.0,0.0,55,0.00,,---,0.00,VWS V14.00,2013-01-05 22:14:00,
2013-01-05 16:20:00,48.9,33.0,30.16,SW,230,0.0,0.0,54,0.00,,---,0.00,VWS V14.00,2013-01-05 22:20:00,
2013-01-05 16:26:00,48.8,32.9,30.16,SW,233,2.0,5.0,54,0.00,,---,0.00,VWS V14.00,2013-01-05 22:26:00,
2013-01-05 16:31:00,48.8,32.9,30.16,WSW,237,4.0,7.0,54,0.00,,---,0.00,VWS V14.00,2013-01-05 22:31:00,
2013-01-05 16:37:00,48.7,32.8,30.16,SW,221,0.0,2.0,54,0.00,,---,0.00,VWS V14.00,2013-01-05 22:37:00,
2013-01-05 16:42:00,48.7,32.8,30.17,SW,217,0.0,0.0,54,0.00,,---,0.00,VWS V14.00,2013-01-05 22:42:00,
2013-01-05 16:47:00,48.6,32.7,30.17,West,268,0.0,0.0,54,0.00,,---,0.00,VWS V14.00,2013-01-05 22:47:00,
2013-01-05 16:52:00,48.5,32.6,30.17,West,276,0.0,0.0,54,0.00,,---,0.00,VWS V14.00,2013-01-05 22:52:00,
2013-01-05 16:58:00,48.3,32.9,30.17,West,274,0.0,2.0,55,0.00,,---,0.00,VWS V14.00,2013-01-05 22:58:00,
2013-01-05 17:04:00,47.9,32.5,30.17,West,272,0.0,3.0,55,0.00,,---,0.00,VWS V14.00,2013-01-05 23:04:00,
2013-01-05 17:09:00,47.7,32.3,30.17,WNW,290,0.0,1.0,55,0.00,,---,0.00,VWS V14.00,2013-01-05 23:09:00,
2013-01-05 17:14:00,47.5,32.6,30.18,WNW,290,0.0,0.0,56,0.00,,---,0.00,VWS V14.00,2013-01-05 23:14:00,
2013-01-05 17:19:00,47.3,32.8,30.18,WNW,290,0.0,0.0,57,0.00,,---,0.00,VWS V14.00,2013-01-05 23:19:00,
2013-01-05 17:24:00,47.1,32.7,30.18,WNW,290,0.0,0.0,57,0.00,,---,0.00,VWS V14.00,2013-01-05 23:24:00,
2013-01-05 17:29:00,47.0,32.6,30.18,WNW,290,0.0,0.0,57,0.00,,---,0.00,VWS V14.00,2013-01-05 23:29:00,
2013-01-05 17:34:00,46.7,32.3,30.18,WNW,290,0.0,0.0,57,0.00,,---,0.00,VWS V14.00,2013-01-05 23:34:00,
2013-01-05 17:39:00,46.4,32.4,30.18,WNW,290,0.0,0.0,58,0.00,,---,0.00,VWS V14.00,2013-01-05 23:39:00,
2013-01-05 17:45:00,46.1,32.6,30.18,WNW,290,0.0,0.0,59,0.00,,---,0.00,VWS V14.00,2013-01-05 23:45:00,
2013-01-05 17:50:00,45.9,32.4,30.18,WNW,290,0.0,0.0,59,0.00,,---,0.00,VWS V14.00,2013-01-05 23:50:00,
2013-01-05 17:56:00,45.4,32.3,30.19,WNW,290,0.0,0.0,60,0.00,,---,0.00,VWS V14.00,2013-01-05 23:56:00,
2013-01-05 18:01:00,45.0,32.4,30.19,WNW,290,0.0,0.0,61,0.00,,---,0.00,VWS V14.00,2013-01-06 00:01:00,
2013-01-05 18:07:00,44.3,32.1,30.19,WNW,290,0.0,0.0,62,0.00,,---,0.00,VWS V14.00,2013-01-06 00:07:00,
2013-01-05 18:13:00,43.8,32.8,30.19,WNW,290,0.0,0.0,65,0.00,,---,0.00,VWS V14.00,2013-01-06 00:13:00,
2013-01-05 18:18:00,43.5,33.7,30.19,WNW,290,0.0,0.0,68,0.00,,---,0.00,VWS V14.00,2013-01-06 00:18:00,
2013-01-05 18:23:00,43.3,34.2,30.19,WNW,290,0.0,0.0,70,0.00,,---,0.00,VWS V14.00,2013-01-06 00:23:00,
2013-01-05 18:29:00,42.8,32.6,30.20,WNW,290,0.0,0.0,67,0.00,,---,0.00,VWS V14.00,2013-01-06 00:29:00,
2013-01-05 18:35:00,42.1,32.0,30.20,WNW,290,0.0,0.0,67,0.00,,---,0.00,VWS V14.00,2013-01-06 00:35:00,
2013-01-05 18:40:00,41.7,31.9,30.20,WNW,290,0.0,0.0,68,0.00,,---,0.00,VWS V14.00,2013-01-06 00:40:00,
2013-01-05 18:45:00,41.3,31.9,30.20,WNW,290,0.0,0.0,69,0.00,,---,0.00,VWS V14.00,2013-01-06 00:45:00,
2013-01-05 18:50:00,40.9,31.5,30.20,WNW,290,0.0,0.0,69,0.00,,---,0.00,VWS V14.00,2013-01-06 00:50:00,
2013-01-05 18:56:00,40.4,31.8,30.21,WNW,290,0.0,0.0,71,0.00,,---,0.00,VWS V14.00,2013-01-06 00:56:00,
2013-01-05 19:02:00,40.1,31.5,30.21,WNW,290,0.0,0.0,71,0.00,,---,0.00,VWS V14.00,2013-01-06 01:02:00,
2013-01-05 19:07:00,39.9,31.6,30.21,WNW,290,0.0,0.0,72,0.00,,---,0.00,VWS V14.00,2013-01-06 01:07:00,
2013-01-05 19:12:00,39.6,31.7,30.22,WNW,290,0.0,0.0,73,0.00,,---,0.00,VWS V14.00,2013-01-06 01:12:00,
2013-01-05 19:17:00,39.5,31.6,30.22,WNW,290,0.0,0.0,73,0.00,,---,0.00,VWS V14.00,2013-01-06 01:17:00,
2013-01-05 19:22:00,39.4,31.5,30.22,WNW,290,0.0,0.0,73,0.00,,---,0.00,VWS V14.00,2013-01-06 01:22:00,
2013-01-05 19:28:00,39.2,32.0,30.22,WNW,290,0.0,0.0,75,0.00,,---,0.00,VWS V14.00,2013-01-06 01:28:00,
2013-01-05 19:33:00,39.5,33.5,30.22,WNW,290,0.0,0.0,79,0.00,,---,0.00,VWS V14.00,2013-01-06 01:33:00,
2013-01-05 19:39:00,39.7,34.4,30.22,WNW,290,0.0,0.0,81,0.00,,---,0.00,VWS V14.00,2013-01-06 01:39:00,
2013-01-05 19:44:00,39.5,32.6,30.22,WNW,290,0.0,0.0,76,0.00,,---,0.00,VWS V14.00,2013-01-06 01:44:00,
2013-01-05 19:49:00,39.0,31.8,30.22,WNW,290,0.0,0.0,75,0.00,,---,0.00,VWS V14.00,2013-01-06 01:49:00,
2013-01-05 19:54:00,38.7,31.8,30.22,WNW,290,0.0,0.0,76,0.00,,---,0.00,VWS V14.00,2013-01-06 01:54:00,
2013-01-05 19:59:00,38.5,31.6,30.22,WNW,290,0.0,0.0,76,0.00,,---,0.00,VWS V14.00,2013-01-06 01:59:00,
2013-01-05 20:04:00,38.5,32.9,30.22,WNW,290,0.0,0.0,80,0.00,,---,0.00,VWS V14.00,2013-01-06 02:04:00,
2013-01-05 20:10:00,38.6,32.7,30.21,WNW,290,0.0,0.0,79,0.00,,---,0.00,VWS V14.00,2013-01-06 02:10:00,
2013-01-05 20:16:00,38.3,32.0,30.21,WNW,290,0.0,0.0,78,0.00,,---,0.00,VWS V14.00,2013-01-06 02:16:00,
2013-01-05 20:21:00,38.5,33.2,30.21,WNW,290,0.0,0.0,81,0.00,,---,0.00,VWS V14.00,2013-01-06 02:21:00,
2013-01-05 20:27:00,38.7,32.4,30.21,WNW,290,0.0,0.0,78,0.00,,---,0.00,VWS V14.00,2013-01-06 02:27:00,
2013-01-05 20:33:00,38.4,32.2,30.21,WNW,290,0.0,0.0,78,0.00,,---,0.00,VWS V14.00,2013-01-06 02:33:00,
2013-01-05 20:38:00,38.5,32.2,30.21,WNW,290,0.0,0.0,78,0.00,,---,0.00,VWS V14.00,2013-01-06 02:38:00,
2013-01-05 20:43:00,38.7,32.8,30.21,WNW,290,0.0,0.0,79,0.00,,---,0.00,VWS V14.00,2013-01-06 02:43:00,
2013-01-05 20:49:00,38.9,32.6,30.21,WNW,290,0.0,0.0,78,0.00,,---,0.00,VWS V14.00,2013-01-06 02:49:00,
2013-01-05 20:54:00,39.3,34.3,30.21,WNW,290,0.0,0.0,82,0.00,,---,0.00,VWS V14.00,2013-01-06 02:54:00,
2013-01-05 20:59:00,39.3,33.0,30.22,WNW,290,0.0,0.0,78,0.00,,---,0.00,VWS V14.00,2013-01-06 02:59:00,
2013-01-05 21:04:00,38.9,32.3,30.22,WNW,290,0.0,0.0,77,0.00,,---,0.00,VWS V14.00,2013-01-06 03:04:00,
2013-01-05 21:09:00,38.3,32.0,30.22,WNW,290,0.0,0.0,78,0.00,,---,0.00,VWS V14.00,2013-01-06 03:09:00,
2013-01-05 21:14:00,38.0,32.1,30.22,WNW,290,0.0,0.0,79,0.00,,---,0.00,VWS V14.00,2013-01-06 03:14:00,
2013-01-05 21:20:00,37.7,31.8,30.22,WNW,290,0.0,0.0,79,0.00,,---,0.00,VWS V14.00,2013-01-06 03:20:00,
2013-01-05 21:25:00,37.4,32.1,30.23,WNW,290,0.0,0.0,81,0.00,,---,0.00,VWS V14.00,2013-01-06 03:25:00,
2013-01-05 21:31:00,37.6,32.3,30.23,WNW,290,0.0,0.0,81,0.00,,---,0.00,VWS V14.00,2013-01-06 03:31:00,
2013-01-05 21:36:00,37.5,32.2,30.23,WNW,290,0.0,0.0,81,0.00,,---,0.00,VWS V14.00,2013-01-06 03:36:00,
2013-01-05 21:42:00,37.5,32.5,30.23,WNW,290,0.0,0.0,82,0.00,,---,0.00,VWS V14.00,2013-01-06 03:42:00,
2013-01-05 21:47:00,37.3,32.0,30.23,WNW,290,0.0,0.0,81,0.00,,---,0.00,VWS V14.00,2013-01-06 03:47:00,
2013-01-05 21:53:00,36.9,31.6,30.23,WNW,290,0.0,0.0,81,0.00,,---,0.00,VWS V14.00,2013-01-06 03:53:00,
2013-01-05 21:58:00,36.7,31.7,30.23,WNW,290,0.0,0.0,82,0.00,,---,0.00,VWS V14.00,2013-01-06 03:58:00,
2013-01-05 22:04:00,36.8,32.1,30.23,WNW,290,0.0,0.0,83,0.00,,---,0.00,VWS V14.00,2013-01-06 04:04:00,
2013-01-05 22:09:00,36.8,32.1,30.23,WNW,290,0.0,0.0,83,0.00,,---,0.00,VWS V14.00,2013-01-06 04:09:00,
2013-01-05 22:14:00,36.8,32.1,30.23,WNW,290,0.0,0.0,83,0.00,,---,0.00,VWS V14.00,2013-01-06 04:14:00,
2013-01-05 22:20:00,36.4,31.7,30.23,WNW,290,0.0,0.0,83,0.00,,---,0.00,VWS V14.00,2013-01-06 04:20:00,
2013-01-05 22:25:00,36.4,31.7,30.24,WNW,290,0.0,0.0,83,0.00,,---,0.00,VWS V14.00,2013-01-06 04:25:00,
2013-01-05 22:30:00,36.3,31.6,30.24,WNW,290,0.0,0.0,83,0.00,,---,0.00,VWS V14.00,2013-01-06 04:30:00,
2013-01-05 22:35:00,36.1,31.5,30.24,WNW,290,0.0,0.0,83,0.00,,---,0.00,VWS V14.00,2013-01-06 04:35:00,
2013-01-05 22:40:00,36.2,31.5,30.24,WNW,290,0.0,0.0,83,0.00,,---,0.00,VWS V14.00,2013-01-06 04:40:00,
2013-01-05 22:45:00,37.0,32.3,30.24,WNW,290,0.0,0.0,83,0.00,,---,0.00,VWS V14.00,2013-01-06 04:45:00,
2013-01-05 22:50:00,37.5,32.2,30.24,WNW,290,0.0,0.0,81,0.00,,---,0.00,VWS V14.00,2013-01-06 04:50:00,
2013-01-05 22:53:00,37.8,31.9,30.25,WNW,287,0.0,0.0,79,0.00,,---,0.00,VWS V14.00,2013-01-06 04:53:00,
2013-01-05 22:54:00,37.9,32.0,30.25,WNW,287,0.0,0.0,79,0.00,,---,0.00,VWS V14.00,2013-01-06 04:54:00,
2013-01-05 22:55:00,37.7,32.1,30.25,West,281,0.0,3.0,80,0.00,,---,0.00,VWS V14.00,2013-01-06 04:55:00,
2013-01-05 22:56:00,38.0,32.1,30.25,WNW,287,0.0,2.0,79,0.00,,---,0.00,VWS V14.00,2013-01-06 04:56:00,
2013-01-05 22:57:00,38.0,32.1,30.25,WNW,287,0.0,4.0,79,0.00,,---,0.00,VWS V14.00,2013-01-06 04:57:00,
2013-01-05 22:58:00,38.1,31.9,30.25,WNW,287,0.0,0.0,78,0.00,,---,0.00,VWS V14.00,2013-01-06 04:58:00,
2013-01-05 22:59:00,38.1,31.9,30.25,WNW,287,0.0,0.0,78,0.00,,---,0.00,VWS V14.00,2013-01-06 04:59:00,
2013-01-05 23:00:00,38.2,32.0,30.25,WNW,287,0.0,3.0,78,0.00,,---,0.00,VWS V14.00,2013-01-06 05:00:00,
2013-01-05 23:01:00,38.2,32.0,30.25,WNW,287,0.0,0.0,78,0.00,,---,0.00,VWS V14.00,2013-01-06 05:01:00,
2013-01-05 23:02:00,38.2,32.0,30.25,WNW,287,0.0,0.0,78,0.00,,---,0.00,VWS V14.00,2013-01-06 05:02:00,
2013-01-05 23:03:00,38.2,32.0,30.25,WNW,287,0.0,1.0,78,0.00,,---,0.00,VWS V14.00,2013-01-06 05:03:00,
2013-01-05 23:04:00,38.3,32.0,30.25,WNW,287,0.0,0.0,78,0.00,,---,0.00,VWS V14.00,2013-01-06 05:04:00,
2013-01-05 23:05:00,38.3,32.0,30.25,WNW,287,0.0,0.0,78,0.00,,---,0.00,VWS V14.00,2013-01-06 05:05:00,
2013-01-05 23:06:00,38.4,32.2,30.25,WNW,287,0.0,0.0,78,0.00,,---,0.00,VWS V14.00,2013-01-06 05:06:00,
2013-01-05 23:07:00,38.4,32.2,30.25,WNW,287,0.0,0.0,78,0.00,,---,0.00,VWS V14.00,2013-01-06 05:07:00,
2013-01-05 23:08:00,38.4,32.2,30.25,WNW,287,1.0,5.0,78,0.00,,---,0.00,VWS V14.00,2013-01-06 05:08:00,
2013-01-05 23:09:00,38.4,31.8,30.25,WNW,287,0.0,1.0,77,0.00,,---,0.00,VWS V14.00,2013-01-06 05:09:00,
2013-01-05 23:10:00,38.4,31.8,30.25,WNW,286,0.0,5.0,77,0.00,,---,0.00,VWS V14.00,2013-01-06 05:10:00,
2013-01-05 23:11:00,38.4,31.8,30.25,WNW,285,0.0,4.0,77,0.00,,---,0.00,VWS V14.00,2013-01-06 05:11:00,
2013-01-05 23:12:00,38.4,31.8,30.25,WNW,285,0.0,4.0,77,0.00,,---,0.00,VWS V14.00,2013-01-06 05:12:00,
2013-01-05 23:13:00,38.4,32.2,30.25,WNW,285,0.0,0.0,78,0.00,,---,0.00,VWS V14.00,2013-01-06 05:13:00,
2013-01-05 23:14:00,38.4,32.2,30.25,WNW,285,0.0,0.0,78,0.00,,---,0.00,VWS V14.00,2013-01-06 05:14:00,
2013-01-05 23:15:00,38.5,32.2,30.26,WNW,285,0.0,0.0,78,0.00,,---,0.00,VWS V14.00,2013-01-06 05:15:00,
2013-01-05 23:16:00,38.5,32.2,30.26,WNW,285,0.0,0.0,78,0.00,,---,0.00,VWS V14.00,2013-01-06 05:16:00,
2013-01-05 23:17:00,38.4,32.2,30.26,WNW,285,0.0,0.0,78,0.00,,---,0.00,VWS V14.00,2013-01-06 05:17:00,
2013-01-05 23:18:00,38.4,31.8,30.26,WNW,285,0.0,4.0,77,0.00,,---,0.00,VWS V14.00,2013-01-06 05:18:00,
2013-01-05 23:19:00,38.4,31.8,30.26,WNW,285,0.0,0.0,77,0.00,,---,0.00,VWS V14.00,2013-01-06 05:19:00,
2013-01-05 23:20:00,38.3,31.7,30.26,WNW,285,0.0,1.0,77,0.00,,---,0.00,VWS V14.00,2013-01-06 05:20:00,
2013-01-05 23:21:00,38.3,31.7,30.26,WNW,285,0.0,0.0,77,0.00,,---,0.00,VWS V14.00,2013-01-06 05:21:00,
2013-01-05 23:22:00,38.2,31.6,30.26,WNW,285,0.0,0.0,77,0.00,,---,0.00,VWS V14.00,2013-01-06 05:22:00,
2013-01-05 23:23:00,38.2,31.6,30.26,WNW,285,0.0,3.0,77,0.00,,---,0.00,VWS V14.00,2013-01-06 05:23:00,
2013-01-05 23:24:00,38.1,31.5,30.26,WNW,285,0.0,0.0,77,0.00,,---,0.00,VWS V14.00,2013-01-06 05:24:00,
2013-01-05 23:25:00,38.1,31.5,30.26,WNW,285,0.0,0.0,77,0.00,,---,0.00,VWS V14.00,2013-01-06 05:25:00,
2013-01-05 23:26:00,38.0,31.4,30.26,WNW,285,0.0,0.0,77,0.00,,---,0.00,VWS V14.00,2013-01-06 05:26:00,
2013-01-05 23:27:00,38.0,31.4,30.26,WNW,285,0.0,0.0,77,0.00,,---,0.00,VWS V14.00,2013-01-06 05:27:00,
2013-01-05 23:28:00,38.0,31.4,30.26,WNW,285,0.0,0.0,77,0.00,,---,0.00,VWS V14.00,2013-01-06 05:28:00,
2013-01-05 23:29:00,37.9,31.4,30.26,WNW,285,0.0,0.0,77,0.00,,---,0.00,VWS V14.00,2013-01-06 05:29:00,
2013-01-05 23:30:00,37.9,31.4,30.26,WNW,285,0.0,0.0,77,0.00,,---,0.00,VWS V14.00,2013-01-06 05:30:00,
2013-01-05 23:31:00,37.9,31.4,30.26,WNW,285,0.0,0.0,77,0.00,,---,0.00,VWS V14.00,2013-01-06 05:31:00,
2013-01-05 23:32:00,37.8,31.2,30.26,WNW,285,0.0,0.0,77,0.00,,---,0.00,VWS V14.00,2013-01-06 05:32:00,
2013-01-05 23:33:00,37.8,31.2,30.26,WNW,285,0.0,0.0,77,0.00,,---,0.00,VWS V14.00,2013-01-06 05:33:00,
2013-01-05 23:34:00,37.7,31.1,30.26,WNW,285,0.0,0.0,77,0.00,,---,0.00,VWS V14.00,2013-01-06 05:34:00,
2013-01-05 23:35:00,37.7,31.1,30.26,WNW,285,0.0,0.0,77,0.00,,---,0.00,VWS V14.00,2013-01-06 05:35:00,
2013-01-05 23:37:00,37.7,31.1,30.26,WNW,285,0.0,0.0,77,0.00,,---,0.00,VWS V14.00,2013-01-06 05:37:00,
2013-01-05 23:38:00,37.7,31.1,30.26,WNW,285,0.0,0.0,77,0.00,,---,0.00,VWS V14.00,2013-01-06 05:38:00,
2013-01-05 23:39:00,37.6,31.1,30.26,WNW,285,0.0,0.0,77,0.00,,---,0.00,VWS V14.00,2013-01-06 05:39:00,
2013-01-05 23:40:00,37.6,31.1,30.26,WNW,285,0.0,0.0,77,0.00,,---,0.00,VWS V14.00,2013-01-06 05:40:00,
2013-01-05 23:41:00,37.5,31.0,30.26,WNW,285,0.0,0.0,77,0.00,,---,0.00,VWS V14.00,2013-01-06 05:41:00,
2013-01-05 23:42:00,37.5,31.0,30.26,WNW,285,0.0,0.0,77,0.00,,---,0.00,VWS V14.00,2013-01-06 05:42:00,
2013-01-05 23:46:00,37.7,31.1,30.26,WNW,285,0.0,0.0,77,0.00,,---,0.00,VWS V14.00,2013-01-06 05:46:00,
2013-01-05 23:47:00,37.4,31.2,30.25,WNW,285,0.0,0.0,78,0.00,,---,0.00,VWS V14.00,2013-01-06 05:47:00,
2013-01-05 23:49:00,37.3,31.1,30.25,WNW,285,0.0,0.0,78,0.00,,---,0.00,VWS V14.00,2013-01-06 05:49:00,
2013-01-05 23:50:00,37.3,31.1,30.25,WNW,285,0.0,0.0,78,0.00,,---,0.00,VWS V14.00,2013-01-06 05:50:00,
2013-01-05 23:51:00,37.2,31.0,30.25,WNW,285,0.0,0.0,78,0.00,,---,0.00,VWS V14.00,2013-01-06 05:51:00,
2013-01-05 23:53:00,37.5,31.0,30.26,WNW,285,0.0,0.0,77,0.00,,---,0.00,VWS V14.00,2013-01-06 05:53:00,
2013-01-05 23:54:00,37.2,31.0,30.25,WNW,285,0.0,0.0,78,0.00,,---,0.00,VWS V14.00,2013-01-06 05:54:00,
2013-01-05 23:55:00,37.2,31.0,30.25,WNW,285,0.0,0.0,78,0.00,,---,0.00,VWS V14.00,2013-01-06 05:55:00,
2013-01-05 23:58:00,37.3,31.1,30.25,WNW,285,0.0,0.0,78,0.00,,---,0.00,VWS V14.00,2013-01-06 05:58:00,